Location: Praha
(50.0830°N, 14.4670°E)
Time: 18:49:36
(UTC+02:00)

ISS - Pass Details

Date: 16 July 2021
Orbit: 419 x 421 km, 51.6° (Epoch: 02 August)

Event Time Altitude Azimuth Distance (km) Brightness Sun altitude
Rises 02:09:34 0° 286° (WNW) 2,371 0.1 -17.3°
Reaches altitude 10° 02:11:40 10° 285° (WNW) 1,505 -0.9 -17.2°
Maximum altitude 02:15:03 84° 199° (SSW) 428 -3.9 -17.0°
Drops below altitude 10° 02:18:25 10° 110° (ESE) 1,500 -1.0 -16.9°
Sets 02:20:31 0° 110° (ESE) 2,361 0.0 -16.8°
